• In Czech Republic
  • List of Countries
  • For 7 days
  • Water Temperature
  • Satellite Maps
  • Weather Map
  • Weather Widgets
  • user-avatar
    Login

    Hourly Weather Nowy Targ

    Today, 16 October, Tuesday

    Time Temperature Precipitation Wind Pressure Humidity
    00:00 +10°C° 0 mm 1 mps 714 mmHg 55%
    01:00 +11°C° 0 mm 1 mps 714 mmHg 52%
    02:00 +11°C° 0 mm 1 mps 714 mmHg 51%
    03:00 +11°C° 0 mm 1 mps 714 mmHg 50%
    04:00 +11°C° 0 mm 1 mps 714 mmHg 49%
    05:00 +11°C° 0 mm 1 mps 714 mmHg 50%
    06:00 +11°C° 0 mm 1 mps 714 mmHg 51%
    07:00 +11°C° 0 mm 1 mps 714 mmHg 50%
    08:00 +13°C° 0 mm 1 mps 715 mmHg 46%
    09:00 +16°C° 0 mm 2 mps 715 mmHg 41%
    10:00 +18°C° 0 mm 2 mps 715 mmHg 37%
    11:00 +19°C° 0 mm 2 mps 715 mmHg 36%
    12:00 +20°C° 0 mm 2 mps 715 mmHg 34%
    13:00 +20°C° 0 mm 2 mps 715 mmHg 33%
    14:00 +19°C° 0 mm 2 mps 715 mmHg 38%
    15:00 +19°C° 0 mm 1 mps 715 mmHg 43%
    16:00 +18°C° 0 mm 1 mps 714 mmHg 48%
    17:00 +15°C° 0 mm 1 mps 714 mmHg 51%
    18:00 +14°C° 0 mm 1 mps 714 mmHg 54%
    19:00 +12°C° 0 mm 1 mps 714 mmHg 57%
    20:00 +12°C° 0 mm 1 mps 714 mmHg 57%
    21:00 +12°C° 0 mm 1 mps 714 mmHg 57%
    22:00 +11°C° 0 mm 1 mps 714 mmHg 57%
    23:00 +11°C° 0 mm 1 mps 714 mmHg 57%

    Tomorrow, 17 October, Wednesday

    Time Temperature Precipitation Wind Pressure Humidity
    00:00 +11°C° 0 mm 1 mps 714 mmHg 57%
    01:00 +11°C° 0 mm 1 mps 714 mmHg 57%
    02:00 +11°C° 0 mm 1 mps 714 mmHg 57%
    03:00 +11°C° 0 mm 1 mps 714 mmHg 57%
    04:00 +11°C° 0 mm 1 mps 714 mmHg 57%
    05:00 +11°C° 0 mm 1 mps 714 mmHg 58%
    06:00 +12°C° 0 mm 1 mps 714 mmHg 59%
    07:00 +12°C° 0 mm 1 mps 714 mmHg 59%
    08:00 +14°C° 0 mm 1 mps 714 mmHg 53%
    09:00 +16°C° 0 mm 1 mps 715 mmHg 48%
    10:00 +20°C° 0 mm 1 mps 715 mmHg 42%
    11:00 +20°C° 0 mm 1 mps 715 mmHg 40%
    12:00 +21°C° 0 mm 1 mps 715 mmHg 39%
    13:00 +22°C° 0 mm 1 mps 714 mmHg 38%
    14:00 +21°C° 0 mm 1 mps 714 mmHg 42%
    15:00 +19°C° 0 mm 1 mps 714 mmHg 47%
    16:00 +18°C° 0 mm 1 mps 713 mmHg 52%
    17:00 +16°C° 0 mm 1 mps 713 mmHg 55%
    18:00 +15°C° 0 mm 1 mps 713 mmHg 58%
    19:00 +13°C° 0 mm 1 mps 713 mmHg 61%
    20:00 +13°C° 0 mm 1 mps 713 mmHg 61%
    21:00 +12°C° 0 mm 0 mps 713 mmHg 62%
    22:00 +12°C° 0 mm 0 mps 713 mmHg 62%
    23:00 +11°C° 0 mm 0 mps 713 mmHg 63%

    Day after tomorrow, 18 October, Thursday

    Time Temperature Precipitation Wind Pressure Humidity
    00:00 +11°C° 0 mm 0 mps 713 mmHg 64%
    01:00 +12°C° 0 mm 1 mps 712 mmHg 64%
    02:00 +12°C° 0 mm 1 mps 712 mmHg 65%
    03:00 +12°C° 0 mm 1 mps 712 mmHg 66%
    04:00 +12°C° 0 mm 1 mps 712 mmHg 67%
    05:00 +12°C° 0.1 mm 1 mps 712 mmHg 68%
    06:00 +12°C° 0.1 mm 1 mps 712 mmHg 70%
    07:00 +12°C° 0.1 mm 1 mps 712 mmHg 72%
    08:00 +13°C° 0 mm 1 mps 712 mmHg 69%
    09:00 +14°C° 0 mm 1 mps 713 mmHg 67%
    10:00 +15°C° 0 mm 1 mps 713 mmHg 64%
    11:00 +15°C° 0 mm 1 mps 713 mmHg 61%
    12:00 +16°C° 0 mm 1 mps 713 mmHg 58%
    13:00 +18°C° 0 mm 1 mps 712 mmHg 55%
    14:00 +15°C° 0 mm 0 mps 712 mmHg 58%
    15:00 +14°C° 0 mm 0 mps 712 mmHg 61%
    16:00 +14°C° 0 mm 0 mps 712 mmHg 64%
    17:00 +13°C° 0 mm 0 mps 712 mmHg 66%
    18:00 +12°C° 0 mm 0 mps 712 mmHg 69%
    19:00 +11°C° 0 mm 0 mps 712 mmHg 72%
    20:00 +12°C° 0 mm 1 mps 712 mmHg 73%
    21:00 +11°C° 0 mm 1 mps 712 mmHg 74%
    22:00 +11°C° 0 mm 1 mps 712 mmHg 75%
    23:00 +11°C° 0 mm 1 mps 712 mmHg 76%

    19 October, Friday

    Time Temperature Precipitation Wind Pressure Humidity
    00:00 +11°C° 0 mm 1 mps 712 mmHg 77%
    01:00 +10°C° 0 mm 1 mps 712 mmHg 78%
    02:00 +10°C° 0 mm 1 mps 712 mmHg 79%
    03:00 +10°C° 0 mm 1 mps 712 mmHg 80%
    04:00 +10°C° 0 mm 1 mps 712 mmHg 82%
    05:00 +10°C° 0 mm 1 mps 712 mmHg 82%
    06:00 +10°C° 0 mm 1 mps 712 mmHg 83%
    07:00 +10°C° 0 mm 1 mps 713 mmHg 84%
    08:00 +12°C° 0 mm 1 mps 713 mmHg 77%
    09:00 +14°C° 0 mm 2 mps 713 mmHg 71%
    10:00 +15°C° 0 mm 2 mps 714 mmHg 65%
    11:00 +16°C° 0 mm 2 mps 714 mmHg 63%
    12:00 +16°C° 0 mm 2 mps 713 mmHg 61%
    13:00 +17°C° 0 mm 2 mps 713 mmHg 59%
    14:00 +16°C° 0 mm 2 mps 713 mmHg 63%
    15:00 +15°C° 0 mm 2 mps 713 mmHg 67%
    16:00 +14°C° 0 mm 2 mps 713 mmHg 72%
    17:00 +13°C° 0 mm 2 mps 713 mmHg 77%
    18:00 +12°C° 0 mm 1 mps 713 mmHg 82%
    19:00 +11°C° 0 mm 1 mps 713 mmHg 87%
    20:00 +11°C° 0 mm 1 mps 714 mmHg 88%
    21:00 +11°C° 0 mm 1 mps 714 mmHg 89%
    22:00 +10°C° 0 mm 1 mps 714 mmHg 90%
    23:00 +10°C° 0 mm 1 mps 714 mmHg 91%

    20 October, Saturday

    Time Temperature Precipitation Wind Pressure Humidity
    00:00 +10°C° 0 mm 1 mps 714 mmHg 93%
    01:00 +9°C° 0 mm 1 mps 714 mmHg 94%
    02:00 +10°C° 0 mm 1 mps 714 mmHg 94%
    03:00 +10°C° 0 mm 1 mps 714 mmHg 94%
    04:00 +10°C° 0 mm 1 mps 714 mmHg 93%
    05:00 +10°C° 0 mm 1 mps 714 mmHg 93%
    06:00 +10°C° 0 mm 1 mps 714 mmHg 93%
    07:00 +10°C° 0 mm 1 mps 714 mmHg 93%
    08:00 +11°C° 0 mm 1 mps 714 mmHg 87%
    09:00 +11°C° 0 mm 1 mps 715 mmHg 81%
    10:00 +12°C° 0 mm 2 mps 715 mmHg 75%
    11:00 +13°C° 0 mm 2 mps 715 mmHg 71%
    12:00 +13°C° 0 mm 2 mps 714 mmHg 67%
    13:00 +14°C° 0 mm 2 mps 714 mmHg 62%
    14:00 +13°C° 0 mm 2 mps 714 mmHg 64%
    15:00 +13°C° 0 mm 2 mps 714 mmHg 65%
    16:00 +12°C° 0 mm 2 mps 714 mmHg 66%
    17:00 +10°C° 0 mm 2 mps 714 mmHg 69%
    18:00 +9°C° 0 mm 2 mps 714 mmHg 71%
    19:00 +9°C° 0 mm 2 mps 714 mmHg 74%
    20:00 +8°C° 0 mm 2 mps 714 mmHg 76%
    21:00 +7°C° 0 mm 2 mps 714 mmHg 78%
    22:00 +7°C° 0 mm 2 mps 714 mmHg 81%
    23:00 +6°C° 0.1 mm 2 mps 714 mmHg 81%

    21 October, Sunday

    Time Temperature Precipitation Wind Pressure Humidity
    00:00 +6°C° 0.1 mm 2 mps 714 mmHg 81%
    01:00 +6°C° 0.1 mm 2 mps 714 mmHg 82%
    02:00 +5°C° 0.1 mm 2 mps 714 mmHg 84%
    03:00 +4°C° 0.1 mm 2 mps 714 mmHg 86%
    04:00 +4°C° 0.1 mm 2 mps 713 mmHg 88%
    05:00 +4°C° 0.1 mm 2 mps 714 mmHg 87%
    06:00 +4°C° 0.1 mm 2 mps 714 mmHg 86%
    07:00 +4°C° 0.1 mm 2 mps 714 mmHg 85%
    08:00 +5°C° 0 mm 2 mps 714 mmHg 79%
    09:00 +6°C° 0 mm 2 mps 715 mmHg 73%
    10:00 +7°C° 0 mm 3 mps 715 mmHg 68%
    11:00 +7°C° 0 mm 3 mps 715 mmHg 65%
    12:00 +8°C° 0 mm 3 mps 715 mmHg 62%
    13:00 +8°C° 0 mm 3 mps 715 mmHg 59%
    14:00 +8°C° 0 mm 3 mps 714 mmHg 60%
    15:00 +8°C° 0 mm 3 mps 714 mmHg 61%
    16:00 +7°C° 0 mm 2 mps 714 mmHg 62%
    17:00 +6°C° 0 mm 2 mps 714 mmHg 67%
    18:00 +5°C° 0 mm 2 mps 714 mmHg 72%
    19:00 +4°C° 0 mm 2 mps 715 mmHg 77%
    20:00 +5°C° 0 mm 1 mps 715 mmHg 79%
    21:00 +4°C° 0 mm 1 mps 715 mmHg 82%
    22:00 +4°C° 0 mm 1 mps 715 mmHg 85%
    23:00 +4°C° 0 mm 1 mps 715 mmHg 87%
    Show more